GW0910 Weather Reports


time (UTC)temp
F
wind
direction
speed
knots
gust
knots
rain 1hr
in
rain 24hr
in
rain mn
in
humidity
%
barometer
mb
20260504130725 90 0.0 0.0 0.00 0.00 0.00 75 1011.6
20260504130220 90 0.0 0.0 0.00 0.00 0.00 75 1011.6
20260504120145 91 0.0 0.0 0.00 0.00 0.00 74 1011.6
20260504110612 92 0.0 0.0 0.00 0.00 0.00 74 1010.9
20260504110108 92 0.0 0.0 0.00 0.00 0.00 74 1010.9
20260504100534 94 0.0 0.0 0.00 0.00 0.00 66 1009.9
20260504081927 98 0.0 0.0 0.00 0.00 0.00 60 1009.6
20260504081424 98 0.0 0.0 0.00 0.00 0.00 59 1009.6
20260504080920 98 0.0 0.0 0.00 0.00 0.00 59 1009.6
20260504080417 98 0.0 0.0 0.00 0.00 0.00 60 1009.6
20260504070344 96 0.0 0.0 0.00 0.00 0.00 62 1010.2
20260504050732 95 0.0 0.0 0.00 0.00 0.00 69 1011.6
20260504050229 95 0.0 0.0 0.00 0.00 0.00 70 1011.9
20260504045727 95 0.0 0.0 0.00 0.00 0.00 70 1011.6
20260504045221 94 0.0 0.0 0.00 0.00 0.00 71 1011.6
20260504044719 94 0.0 0.0 0.00 0.00 0.00 72 1011.9
20260504044217 94 0.0 0.0 0.00 0.00 0.00 72 1011.9
20260504043714 94 0.0 0.0 0.00 0.00 0.00 72 1012.3
20260504043210 94 0.0 0.0 0.00 0.00 0.00 72 1011.9
20260504042708 94 0.0 0.0 0.00 0.00 0.00 73 1012.3
20260504042204 93 0.0 0.0 0.00 0.00 0.00 73 1012.3
20260504041700 93 0.0 0.0 0.00 0.00 0.00 73 1012.3
20260504041156 93 0.0 0.0 0.00 0.00 0.00 75 1012.6
20260504040653 93 0.0 0.0 0.00 0.00 0.00 75 1012.6
20260504040150 92 0.0 0.0 0.00 0.00 0.00 75 1012.6
20260504035646 92 0.0 0.0 0.00 0.00 0.00 76 1013.0
20260504035144 92 0.0 0.0 0.00 0.00 0.00 76 1013.0
20260504034641 92 0.0 0.0 0.00 0.00 0.00 77 1013.0
20260504034138 92 0.0 0.0 0.00 0.00 0.00 77 1013.0
20260504033636 92 0.0 0.0 0.00 0.00 0.00 77 1013.0
20260504033133 91 0.0 0.0 0.00 0.00 0.00 77 1013.0
20260504032629 91 0.0 0.0 0.00 0.00 0.00 77 1013.0
20260504032126 91 0.0 0.0 0.00 0.00 0.00 77 1013.0
20260504031624 91 0.0 0.0 0.00 0.00 0.00 77 1013.3
20260504031120 91 0.0 0.0 0.00 0.00 0.00 77 1013.0
20260504030617 91 0.0 0.0 0.00 0.00 0.00 77 1013.3
20260504030114 91 0.0 0.0 0.00 0.00 0.00 77 1013.3
20260504025610 92 0.0 0.0 0.00 0.00 0.00 76 1013.3
20260504025108 92 0.0 0.0 0.00 0.00 0.00 77 1013.0
20260504024605 92 0.0 0.0 0.00 0.00 0.00 77 1013.3
20260504024101 92 0.0 0.0 0.00 0.00 0.00 77 1013.0
20260504023557 91 0.0 0.0 0.00 0.00 0.00 77 1013.3
20260504023054 91 0.0 0.0 0.00 0.00 0.00 77 1013.3
20260504022550 91 0.0 0.0 0.00 0.00 0.00 77 1013.6
20260504022046 91 0.0 0.0 0.00 0.00 0.00 77 1013.6
20260504021544 91 0.0 0.0 0.00 0.00 0.00 77 1013.6
20260504021040 91 0.0 0.0 0.00 0.00 0.00 78 1013.6
20260504020537 91 0.0 0.0 0.00 0.00 0.00 78 1013.6
20260504020034 91 0.0 0.0 0.00 0.00 0.00 78 1013.6
20260504015530 91 0.0 0.0 0.00 0.00 0.00 78 1013.6
20260504015026 91 0.0 0.0 0.00 0.00 0.00 79 1014.0
20260504014523 90 0.0 0.0 0.00 0.00 0.00 79 1014.0
20260504014020 90 0.0 0.0 0.00 0.00 0.00 79 1014.0
20260504013518 90 0.0 0.0 0.00 0.00 0.00 79 1014.0
20260504013015 90 0.0 0.0 0.00 0.00 0.00 78 1014.0
20260504012512 90 0.0 0.0 0.00 0.00 0.00 79 1014.0
20260504012010 90 0.0 0.0 0.00 0.00 0.00 79 1014.0
20260504011506 90 0.0 0.0 0.00 0.00 0.00 80 1013.6
20260504011002 90 0.0 0.0 0.00 0.00 0.00 80 1014.0
20260504010458 89 0.0 0.0 0.00 0.00 0.00 81 1014.0
20260504005954 89 0.0 0.0 0.00 0.00 0.00 81 1014.0
20260504005451 89 0.0 0.0 0.00 0.00 0.00 81 1014.0
20260504004948 89 0.0 0.0 0.00 0.00 0.00 81 1014.0
20260504004446 89 0.0 0.0 0.00 0.00 0.00 81 1014.0
20260504003943 89 0.0 0.0 0.00 0.00 0.00 81 1014.0
20260504003439 89 0.0 0.0 0.00 0.00 0.00 80 1013.6
20260504002936 89 0.0 0.0 0.00 0.00 0.00 79 1013.6
20260504002433 89 0.0 0.0 0.00 0.00 0.00 79 1013.6
20260504001930 89 0.0 0.0 0.00 0.00 0.00 79 1014.0
20260504001428 89 0.0 0.0 0.00 0.00 0.00 79 1013.6
20260504000924 88 0.0 0.0 0.00 0.00 0.00 78 1013.6
20260504000423 88 0.0 0.0 0.00 0.00 0.00 78 1013.6
20260503235918 88 0.0 0.0 0.00 0.00 0.00 78 1013.3
20260503235416 89 0.0 0.0 0.00 0.00 0.00 77 1013.6
20260503234914 89 0.0 0.0 0.00 0.00 0.00 77 1013.3
20260503234411 89 0.0 0.0 0.00 0.00 0.00 77 1013.0
20260503233909 89 0.0 0.0 0.00 0.00 0.00 77 1013.0
20260503233405 89 0.0 0.0 0.00 0.00 0.00 77 1013.0
20260503232901 88 0.0 0.0 0.00 0.00 0.00 77 1013.0
20260503232359 88 0.0 0.0 0.00 0.00 0.00 77 1013.0
20260503231856 88 0.0 0.0 0.00 0.00 0.00 77 1013.0
20260503231353 88 0.0 0.0 0.00 0.00 0.00 77 1013.0
20260503230849 88 0.0 0.0 0.00 0.00 0.00 78 1012.6
20260503230346 88 0.0 0.0 0.00 0.00 0.00 78 1012.6
20260503225844 88 0.0 0.0 0.00 0.00 0.00 78 1013.0
20260503225340 88 0.0 0.0 0.00 0.00 0.00 78 1012.6
20260503224836 87 0.0 0.0 0.00 0.00 0.00 78 1012.6
20260503224334 87 0.0 0.0 0.00 0.00 0.00 78 1012.6
20260503223831 87 0.0 0.0 0.00 0.00 0.00 78 1012.3
20260503223329 87 0.0 0.0 0.00 0.00 0.00 79 1012.3
20260503222824 87 0.0 0.0 0.00 0.00 0.00 79 1012.3
20260503222323 87 0.0 0.0 0.00 0.00 0.00 79 1012.3
20260503221820 87 0.0 0.0 0.00 0.00 0.00 79 1012.3
20260503221320 87 0.0 0.0 0.00 0.00 0.00 79 1012.3
20260503220815 86 0.0 0.0 0.00 0.00 0.00 80 1012.3
20260503220312 86 0.0 0.0 0.00 0.00 0.00 80 1012.3
20260503215808 86 0.0 0.0 0.00 0.00 0.00 80 1012.3
20260503215306 86 0.0 0.0 0.00 0.00 0.00 80 1012.3
20260503214804 87 0.0 0.0 0.00 0.00 0.00 80 1012.3
20260503214300 87 0.0 0.0 0.00 0.00 0.00 80 1012.3
20260503213758 87 0.0 0.0 0.00 0.00 0.00 80 1012.3
20260503213255 87 0.0 0.0 0.00 0.00 0.00 80 1011.9
20260503212752 87 0.0 0.0 0.00 0.00 0.00 80 1012.3
20260503212250 87 0.0 0.0 0.00 0.00 0.00 79 1012.3
20260503211747 87 0.0 0.0 0.00 0.00 0.00 79 1012.3
20260503211243 87 0.0 0.0 0.00 0.00 0.00 79 1012.3
20260503210738 87 0.0 0.0 0.00 0.00 0.00 79 1012.3
20260503210236 87 0.0 0.0 0.00 0.00 0.00 79 1012.3
20260503205731 87 0.0 0.0 0.00 0.00 0.00 79 1012.3
20260503205228 87 0.0 0.0 0.00 0.00 0.00 79 1012.3
20260503204724 87 0.0 0.0 0.00 0.00 0.00 79 1011.9
20260503204222 87 0.0 0.0 0.00 0.00 0.00 79 1011.9
20260503203719 87 0.0 0.0 0.00 0.00 0.00 79 1011.9
20260503203217 87 0.0 0.0 0.00 0.00 0.00 79 1011.9
20260503202714 87 0.0 0.0 0.00 0.00 0.00 79 1011.9
20260503202212 87 0.0 0.0 0.00 0.00 0.00 79 1011.9
20260503201709 87 0.0 0.0 0.00 0.00 0.00 79 1011.9
20260503201207 87 0.0 0.0 0.00 0.00 0.00 79 1011.9
20260503200703 87 0.0 0.0 0.00 0.00 0.00 79 1011.6
20260503200159 87 0.0 0.0 0.00 0.00 0.00 79 1011.9
20260503195656 87 0.0 0.0 0.00 0.00 0.00 79 1011.6
20260503195153 87 0.0 0.0 0.00 0.00 0.00 79 1011.6
20260503194650 87 0.0 0.0 0.00 0.00 0.00 79 1011.6
20260503194145 87 0.0 0.0 0.00 0.00 0.00 79 1011.6
20260503193643 87 0.0 0.0 0.00 0.00 0.00 79 1011.3
20260503193138 87 0.0 0.0 0.00 0.00 0.00 79 1011.6
20260503192634 87 0.0 0.0 0.00 0.00 0.00 80 1011.6
20260503192130 87 0.0 0.0 0.00 0.00 0.00 80 1011.3
20260503191627 87 0.0 0.0 0.00 0.00 0.00 80 1011.3
20260503191124 87 0.0 0.0 0.00 0.00 0.00 81 1011.3
20260503190621 87 0.0 0.0 0.00 0.00 0.00 81 1011.6
20260503190118 87 0.0 0.0 0.00 0.00 0.00 82 1011.3
20260503185614 87 0.0 0.0 0.00 0.00 0.00 82 1011.3
20260503185114 87 0.0 0.0 0.00 0.00 0.00 82 1011.3
20260503184610 87 0.0 0.0 0.00 0.00 0.00 82 1011.3
20260503184107 88 0.0 0.0 0.00 0.00 0.00 82 1011.6
20260503183603 88 0.0 0.0 0.00 0.00 0.00 82 1011.3
20260503183101 88 0.0 0.0 0.00 0.00 0.00 82 1011.3
20260503182559 88 0.0 0.0 0.00 0.00 0.00 82 1011.3
20260503182057 88 0.0 0.0 0.00 0.00 0.00 82 1011.3
20260503181553 88 0.0 0.0 0.00 0.00 0.00 82 1011.3
20260503181050 88 0.0 0.0 0.00 0.00 0.00 82 1011.3
20260503180547 88 0.0 0.0 0.00 0.00 0.00 82 1011.3
20260503180044 88 0.0 0.0 0.00 0.00 0.00 82 1011.3
20260503175541 88 0.0 0.0 0.00 0.00 0.00 82 1011.3
20260503175038 88 0.0 0.0 0.00 0.00 0.00 82 1011.6
20260503174536 88 0.0 0.0 0.00 0.00 0.00 83 1011.3
20260503174032 88 0.0 0.0 0.00 0.00 0.00 84 1011.6
20260503173527 88 0.0 0.0 0.00 0.00 0.00 84 1011.6
20260503173024 88 0.0 0.0 0.00 0.00 0.00 85 1011.6
20260503172521 88 0.0 0.0 0.00 0.00 0.00 85 1011.3
20260503172018 88 0.0 0.0 0.00 0.00 0.00 85 1011.6
20260503171515 88 0.0 0.0 0.00 0.00 0.00 85 1011.6
20260503171012 88 0.0 0.0 0.00 0.00 0.00 85 1011.3
20260503170508 88 0.0 0.0 0.00 0.00 0.00 85 1011.6
20260503150901 89 0.0 0.0 0.00 0.00 0.00 82 1011.6
20260503150357 89 0.0 0.0 0.00 0.00 0.00 82 1011.6